Flag for Venezuela Weather past 2 weeks in Caracas, Venezuela

Now
75 °F

Passing clouds.


Feels Like: 77 °F
Forecast: 60 / 72 °F
Wind: No wind

Location: Caracas / Maiquetia Aerop. Intl. Simon Bolivar

Current Time: Dec 25, 2014 at 2:47:41 AM

Latest Report: Dec 25, 2014 at 2:30 AM


Visibility: N/A

Pressure: 29.92 "Hg

Humidity: 74%

Dew point: 66 °F

Location of CaracasLocation

Historic Weather in Caracas — Graph

°F

Caracas temperature yesterday

Maximum temperature yesterday: 88 °F (at 12:30 PM)
Minimum temperature yesterday: 75 °F (at 1:30 AM)
Average temperature yesterday: 79 °F

Past Weeks' High & Low Weather Summary

 TemperatureHumidityPressure
High99 °F (Dec 22, 4:30 PM)100% (Dec 19, 6:30 AM)30.04 "Hg (Dec 19, 6:30 AM)
Low73 °F (Dec 14, 4:30 AM)47% (Dec 22, 4:30 PM)29.86 "Hg (Dec 10, 2:30 PM)
Average80 °F76%29.95 "Hg
* Reported Dec 10 1:30 AM — Dec 25 1:30 AM, Caracas, Weather by CustomWeather, © 2014

Note: Actual official high and low records may vary slightly from our data, if they occured in-between our weather recording intervals... More about our weather records

Advertising

Caracas weather history for previous 24 hours

 ConditionsComfort  
Time TempWeatherWind HumidityBarometerVisibility
1:30 AM
Dec 25
77 °FPassing clouds.3 mph74%29.95 "HgN/A
12:30 AM77 °FPassing clouds.2 mph74%29.95 "HgN/A
11:30 PM
Dec 24
77 °FPassing clouds.No wind79%29.98 "HgN/A
10:30 PM77 °FPassing clouds.No wind79%29.98 "HgN/A
9:30 PM79 °FPassing clouds.No wind74%29.95 "HgN/A
8:30 PM79 °FPassing clouds.2 mph84%29.95 "HgN/A
7:30 PM79 °FPassing clouds.3 mph79%29.95 "HgN/A
6:30 PM81 °FPassing clouds.5 mph89%29.95 "HgN/A
5:30 PM82 °FPassing clouds.5 mph79%29.92 "HgN/A
4:30 PM82 °FScattered clouds.5 mph74%29.92 "HgN/A
1:30 PM84 °FScattered clouds.5 mph74%29.95 "HgN/A
12:30 PM88 °FPassing clouds.2 mph70%29.98 "HgN/A
11:30 AM86 °FPassing clouds.3 mph70%30.01 "HgN/A
10:30 AM84 °FPassing clouds.5 mph70%30.01 "HgN/A
9:30 AM82 °FPassing clouds.5 mph74%29.98 "HgN/A
8:30 AM79 °FPassing clouds.3 mph74%29.98 "HgN/A
7:30 AM75 °FPassing clouds.No wind74%29.95 "HgN/A
6:30 AM75 °FPassing clouds.No wind83%29.92 "HgN/A
5:30 AM75 °FPassing clouds.No wind83%29.89 "HgN/A
4:30 AM75 °FPassing clouds.No wind83%29.89 "HgN/A
3:30 AM77 °FPassing clouds.No wind79%29.89 "HgN/A
2:30 AM77 °FPassing clouds.No wind79%29.92 "HgN/A
Weather by CustomWeather, © 2014

See weather overviewHow to use our weather pages